This demonstration page uses our WeatherBlox Daily Observations layout. Learn more.

Left ArrowRight Arrow

Hourly Observations for May 28, 2022

Temp ( °F °C ) Dew Point ( °F °C ) Humidity (%) Winds ( mph kmh ) Pressure ( in mb ) Visibility ( mi km ) Precip ( " mm )
12:53 am 00:53 Clear 82 27.8 57 13.9 42 42 SSE 20 31 29.72 1007 10 16 0.00 0.00
1:53 am 01:53 Clear 80 26.7 58 14.4 47 47 SSE 17 28 29.71 1006 10 16 0.00 0.00
2:53 am 02:53 Clear 77 25 58 14.4 52 52 SE 10 17 29.71 1006 10 16 0.00 0.00
3:53 am 03:53 Clear 75 23.9 58 14.4 55 55 SE 12 19 29.72 1006 10 16 0.00 0.00
4:53 am 04:53 Clear 74 23.3 59 15 60 60 SE 13 20 29.69 1006 10 16 0.00 0.00
5:53 am 05:53 Clear 73 22.8 59 15 62 62 SE 9 15 29.69 1005 10 16 0.00 0.00
6:53 am 06:53 Sunny 71 21.7 59 15 66 66 SE 12 19 29.69 1005 10 16 0.00 0.00
7:53 am 07:53 Sunny 74 23.3 59 15 60 60 SE 9 15 29.70 1006 10 16 0.00 0.00
8:53 am 08:53 Sunny 80 26.7 56 13.3 44 44 SSE 9 15 29.70 1006 10 16 0.00 0.00
9:53 am 09:53 Sunny 87 30.6 51 10.6 29 29 SW 8 13 29.71 1006 10 16 0.00 0.00
10:53 am 10:53 Sunny 93 33.9 47 8.3 21 21 SW 8 13 29.68 1005 10 16 0.00 0.00
11:53 am 11:53 Sunny 98 36.7 38 3.3 12 12 SW 15 24 29.66 1005 10 16 0.00 0.00
12:53 pm 12:53 Sunny 101 38.3 34 1.1 10 10 SSW 12 19 29.63 1003 10 16 0.00 0.00
1:53 pm 13:53 Sunny 103 39.4 31 -0.6 8 8 SW 20 31 29.60 1002 10 16 0.00 0.00
2:53 pm 14:53 Sunny 104 40 30 -1.1 7 7 WSW 14 22 29.57 1001 10 16 0.00 0.00
3:37 pm 15:37 Sunny 107 41.7 30 -1.1 7 7 WSW 21 33 29.39 995 10 16 0.00 0.00
3:53 pm 15:53 Sunny 106 41.1 31 -0.6 7 7 SSW 17 28 29.53 1000 10 16 0.00 0.00
4:06 pm 16:06 Sunny 102 38.9 31 -0.6 8 8 S 23 37 29.42 996 10 16 0.00 0.00
4:53 pm 16:53 Mostly Sunny 100 37.8 31 -0.6 9 9 Calm 29.52 1000 10 16 0.00 0.00
5:53 pm 17:53 Sunny 101 38.3 27 -2.8 7 7 WSW 7 11 29.49 999 10 16 0.00 0.00
6:53 pm 18:53 Sunny 103 39.4 22 -5.6 5 5 SSW 12 19 29.46 998 10 16 0.00 0.00
7:53 pm 19:53 Mostly Cloudy 100 37.8 29 -1.7 8 8 S 17 28 29.46 998 8 13 0.00 0.00
8:09 pm 20:09 Partly Cloudy 100 37.8 29 -1.7 8 8 W 12 19 29.36 994 8 13 0.00 0.00
8:53 pm 20:53 Mostly Clear 98 36.7 33 0.6 10 10 SE 15 24 29.44 997 10 16 0.00 0.00
9:53 pm 21:53 Mostly Cloudy 94 34.4 40 4.4 15 15 S 25 41 29.45 997 10 16 0.00 0.00
10:53 pm 22:53 Clear 90 32.2 52 11.1 27 27 SSE 26 43 29.48 998 10 16 0.00 0.00
11:53 pm 23:53 Clear 88 31.1 51 10.6 28 28 SSE 20 31 29.53 1000 10 16 0.00 0.00

Powered by AerisWeather